GW0774 Weather Reports


time (UTC)temp
F
wind
direction
speed
knots
gust
knots
rain 1hr
in
rain 24hr
in
rain mn
in
humidity
%
barometer
mb
20260904011039 62 292 17.4 32.2 0.00 0.04 0.04 83 1003.5
20260904010539 62 255 14.8 33.9 0.00 0.04 0.04 83 1003.5
20260904010057 62 229 12.2 33.9 0.00 0.04 0.04 85 1003.9
20260904005541 62 273 11.3 25.2 0.00 0.04 0.04 83 1004.2
20260904005039 62 274 13.0 32.2 0.00 0.04 0.04 86 1004.3
20260904004553 62 257 13.9 33.0 0.00 0.04 0.04 85 1004.4
20260904004039 61 246 15.6 33.0 0.00 0.04 0.04 84 1004.3
20260904003540 61 260 13.0 24.3 0.00 0.04 0.04 86 1004.1
20260904003100 60 244 13.9 32.2 0.00 0.04 0.04 88 1003.8
20260904002538 59 300 13.0 32.2 0.00 0.04 0.04 88 1003.6
20260904002041 60 279 17.4 38.2 0.00 0.04 0.04 88 1003.1
20260904001559 59 261 21.7 38.2 0.00 0.04 0.04 88 1003.2
20260904001040 61 287 22.6 38.2 0.00 0.04 0.04 84 1003.5
20260904000542 61 300 20.0 34.8 0.00 0.04 0.04 83 1003.2
20260904000056 61 275 19.1 37.4 0.00 0.04 0.04 84 1003.4
20260903235543 61 257 20.0 37.4 0.00 0.04 0.04 84 1003.2
20260903235039 61 264 17.4 35.6 0.00 0.04 0.04 85 1003.2
20260903234553 61 259 17.4 34.8 0.00 0.04 0.04 86 1003.3
20260903234039 61 284 17.4 36.5 0.00 0.04 0.04 86 1003.3
20260903233539 61 288 14.8 36.5 0.01 0.04 0.04 86 1003.3
20260903233241 61 322 17.4 34.8 0.01 0.04 0.04 86 1003.1
20260903232536 61 293 16.5 34.8 0.01 0.04 0.04 88 1003.4
20260903232036 60 283 17.4 36.5 0.01 0.04 0.04 89 1003.2
20260903231607 60 296 14.8 36.5 0.02 0.04 0.04 89 1003.7
20260903231040 60 296 19.1 36.5 0.03 0.04 0.04 90 1003.7
20260903230540 59 292 20.0 33.0 0.03 0.04 0.04 92 1003.6
20260903225540 58 273 17.4 30.4 0.03 0.03 0.03 92 1004.1
20260903225042 58 267 12.2 24.3 0.03 0.03 0.03 93 1004.1
20260903224602 57 316 12.2 24.3 0.03 0.03 0.03 93 1003.8
20260903224042 58 269 12.2 24.3 0.03 0.03 0.03 93 1004.0
20260903223539 58 241 13.0 22.6 0.02 0.03 0.03 92 1004.0
20260903223059 58 273 13.9 25.2 0.02 0.03 0.03 91 1004.0
20260903222539 58 285 12.2 25.2 0.02 0.03 0.03 91 1003.9
20260903222040 59 249 12.2 21.7 0.02 0.03 0.03 90 1003.6
20260903221557 59 264 13.0 21.7 0.01 0.02 0.02 89 1003.7
20260903221039 59 276 11.3 22.6 0.00 0.01 0.01 88 1004.0
20260903220542 59 273 13.9 22.6 0.00 0.01 0.01 88 1004.0
20260903220055 60 267 12.2 22.6 0.00 0.00 0.00 87 1003.9
20260903215540 59 277 7.8 20.9 0.00 0.00 0.00 87 1004.2
20260903215039 60 260 8.7 16.5 0.00 0.00 0.00 86 1004.1
20260903214602 60 294 9.6 16.5 0.00 0.00 0.00 87 1004.4
20260903214042 59 273 8.7 15.6 0.00 0.00 0.00 87 1004.4
20260903213538 59 289 8.7 18.2 0.00 0.00 0.00 86 1004.4
20260903213049 59 257 9.6 18.2 0.00 0.00 0.00 85 1004.4
20260903212539 60 320 8.7 18.2 0.00 0.00 0.00 84 1004.4
20260903212039 59 277 9.6 16.5 0.00 0.00 0.00 84 1004.2
20260903211557 59 277 10.4 16.5 0.00 0.00 0.00 84 1004.2
20260903211042 59 261 8.7 17.4 0.00 0.00 0.00 85 1004.2
20260903210540 59 244 9.6 17.4 0.00 0.00 0.00 85 1004.1
20260903210056 59 273 10.4 17.4 0.00 0.00 0.00 84 1004.4
20260903205540 59 265 8.7 17.4 0.00 0.00 0.00 84 1004.7
20260903205044 58 267 7.0 12.2 0.00 0.00 0.00 85 1004.8
20260903204556 58 281 5.2 12.2 0.00 0.00 0.00 86 1004.9
20260903204039 57 284 4.3 12.2 0.00 0.00 0.00 86 1004.9
20260903203538 57 255 2.6 8.7 0.00 0.00 0.00 86 1005.1
20260903203100 57 269 3.5 8.7 0.00 0.00 0.00 86 1005.2
20260903202540 57 243 2.6 7.8 0.00 0.00 0.00 86 1005.5
20260903202043 58 258 2.6 10.4 0.00 0.00 0.00 86 1005.6
20260903201556 58 236 4.3 10.4 0.00 0.00 0.00 86 1005.8
20260903201039 58 263 5.2 10.4 0.00 0.00 0.00 86 1005.9
20260903200542 57 248 4.3 9.6 0.00 0.00 0.00 86 1006.2
20260903200051 57 263 4.3 9.6 0.00 0.00 0.00 87 1006.2
20260903195538 57 267 2.6 8.7 0.00 0.00 0.00 88 1006.2
20260903195039 57 98 2.6 8.7 0.00 0.00 0.00 88 1006.1
20260903194559 57 285 1.7 8.7 0.00 0.00 0.00 88 1006.2
20260903194041 57 243 2.6 7.8 0.00 0.00 0.00 88 1006.4
20260903193538 57 267 3.5 7.8 0.00 0.00 0.00 89 1006.4
20260903193057 57 40 0.9 7.0 0.00 0.00 0.00 89 1006.5
20260903192539 57 264 3.5 10.4 0.00 0.00 0.00 89 1006.6
20260903192039 57 49 4.3 10.4 0.00 0.00 0.00 89 1006.7
20260903191549 57 360 4.3 10.4 0.00 0.00 0.00 89 1006.7
20260903191039 57 301 5.2 10.4 0.00 0.00 0.00 90 1006.9
20260903190541 57 289 5.2 10.4 0.00 0.00 0.00 90 1007.0
20260903190058 57 281 7.0 10.4 0.00 0.00 0.00 90 1006.9
20260903185540 57 324 5.2 10.4 0.00 0.00 0.00 90 1007.0
20260903185038 57 284 6.1 11.3 0.00 0.00 0.00 90 1007.0
20260903184558 57 270 4.3 11.3 0.00 0.00 0.00 90 1007.0
20260903184040 57 284 4.3 9.6 0.00 0.00 0.00 90 1007.0
20260903183540 57 281 4.3 12.2 0.00 0.00 0.00 90 1007.1
20260903183055 57 276 7.0 13.9 0.00 0.00 0.00 90 1007.1
20260903182539 57 289 7.8 13.9 0.00 0.00 0.00 90 1007.2
20260903182038 57 300 8.7 13.9 0.00 0.00 0.00 91 1007.2
20260903181601 57 260 8.7 13.9 0.00 0.00 0.00 91 1007.2
20260903181039 57 275 7.8 13.0 0.00 0.00 0.00 91 1007.3
20260903180539 57 319 7.8 13.0 0.00 0.00 0.00 91 1007.1
20260903180115 57 278 7.8 13.0 0.00 0.00 0.00 91 1007.2
20260903175541 57 293 7.8 14.8 0.00 0.00 0.00 91 1007.4
20260903175041 57 273 8.7 14.8 0.00 0.00 0.00 91 1007.5
20260903174558 57 273 7.0 13.0 0.00 0.00 0.00 92 1007.6
20260903174041 57 286 6.1 12.2 0.00 0.00 0.00 92 1007.5
20260903173540 56 257 3.5 12.2 0.00 0.00 0.00 92 1007.6
20260903173057 57 312 5.2 11.3 0.00 0.00 0.00 92 1007.6
20260903172539 56 279 6.1 11.3 0.00 0.00 0.00 93 1007.7
20260903172039 56 271 6.1 13.0 0.00 0.00 0.00 93 1007.9
20260903171554 56 273 6.1 13.0 0.00 0.00 0.00 93 1007.8
20260903171040 56 321 6.1 13.0 0.00 0.00 0.00 93 1008.0
20260903170539 56 259 5.2 12.2 0.00 0.00 0.00 93 1008.0
20260903170047 57 270 5.2 12.2 0.00 0.00 0.00 93 1008.0
20260903165542 57 268 5.2 13.0 0.00 0.00 0.00 93 1008.1
20260903165044 57 259 5.2 13.9 0.00 0.00 0.00 93 1008.1
20260903164605 57 263 6.1 13.9 0.00 0.00 0.00 93 1008.2
20260903164040 57 270 7.0 12.2 0.00 0.00 0.00 93 1008.1
20260903163540 57 269 7.0 13.9 0.00 0.00 0.00 93 1008.2
20260903163055 57 288 7.8 13.9 0.00 0.00 0.00 93 1008.2
20260903162543 57 294 8.7 13.9 0.00 0.00 0.00 93 1008.1
20260903162035 57 323 7.8 13.0 0.00 0.00 0.00 93 1008.3
20260903161551 57 272 7.0 13.0 0.00 0.00 0.00 92 1008.3
20260903161035 57 291 7.0 15.6 0.00 0.00 0.00 92 1008.3
20260903160539 57 277 9.6 15.6 0.00 0.00 0.00 92 1008.2
20260903160107 57 286 9.6 14.8 0.00 0.00 0.00 92 1008.2
20260903155543 57 277 7.8 13.9 0.00 0.00 0.00 92 1008.2
20260903155036 57 321 7.8 14.8 0.00 0.00 0.00 91 1008.4
20260903154558 57 274 8.7 19.1 0.00 0.00 0.00 91 1008.5
20260903154036 57 246 10.4 19.1 0.00 0.00 0.00 91 1008.6
20260903153537 57 264 12.2 19.1 0.00 0.00 0.00 91 1008.6
20260903153054 57 283 8.7 15.6 0.00 0.00 0.00 91 1008.7
20260903152536 58 252 7.8 16.5 0.00 0.00 0.00 91 1008.8
20260903152037 58 299 10.4 16.5 0.00 0.00 0.00 90 1008.7
20260903151553 58 279 9.6 17.4 0.00 0.00 0.00 90 1008.8
20260903151036 58 300 12.2 17.4 0.00 0.00 0.00 89 1008.7
20260903150536 58 274 9.6 13.9 0.00 0.00 0.00 89 1008.8
20260903150053 58 292 8.7 13.9 0.00 0.00 0.00 89 1008.9
20260903145535 58 325 7.8 14.8 0.00 0.00 0.00 89 1009.0
20260903145038 58 274 7.8 14.8 0.00 0.00 0.00 89 1009.0
20260903144558 57 263 7.8 14.8 0.00 0.00 0.00 89 1009.0
20260903144039 57 296 7.0 12.2 0.00 0.00 0.00 89 1009.3
20260903143539 57 327 7.8 12.2 0.00 0.00 0.00 89 1009.4
20260903143056 57 28 5.2 10.4 0.00 0.00 0.00 89 1009.4
20260903142535 57 297 6.1 10.4 0.00 0.00 0.00 89 1009.5
20260903142036 56 268 4.3 7.8 0.00 0.00 0.00 90 1009.5
20260903141554 56 256 1.7 6.1 0.00 0.00 0.00 90 1009.6
20260903141037 56 287 0.0 5.2 0.00 0.00 0.00 90 1009.7
20260903140541 57 272 2.6 6.1 0.00 0.00 0.00 90 1009.8
20260903140051 57 266 2.6 12.2 0.00 0.00 0.00 90 1009.8
20260903135535 57 289 3.5 12.2 0.00 0.00 0.00 90 1010.0
20260903135036 57 68 3.5 7.8 0.00 0.00 0.00 90 1010.0
20260903134546 57 263 2.6 6.1 0.00 0.00 0.00 90 1010.1
20260903134036 57 272 2.6 7.8 0.00 0.00 0.00 90 1010.2
20260903133535 57 282 2.6 7.8 0.00 0.00 0.00 90 1010.2
20260903133057 57 276 3.5 8.7 0.00 0.00 0.00 90 1010.2
20260903132537 57 270 3.5 10.4 0.00 0.00 0.00 90 1010.3
20260903132035 57 273 5.2 12.2 0.00 0.00 0.00 90 1010.4
20260903131554 57 289 7.8 12.2 0.00 0.00 0.00 91 1010.4
20260903131039 57 329 6.1 12.2 0.00 0.00 0.00 91 1010.4
20260903130541 57 256 4.3 9.6 0.00 0.00 0.00 91 1010.3
20260903130131 57 271 6.1 10.4 0.00 0.00 0.00 91 1010.3
20260903125539 58 263 5.2 13.0 0.00 0.00 0.00 91 1010.3
20260903125039 58 319 7.0 13.0 0.00 0.00 0.00 91 1010.4
20260903124555 58 292 7.0 12.2 0.00 0.00 0.00 91 1010.5
20260903124038 58 290 5.2 10.4 0.00 0.00 0.00 91 1010.6
20260903123538 58 287 6.1 11.3 0.00 0.00 0.00 91 1010.8
20260903123102 58 265 6.1 14.8 0.00 0.00 0.00 91 1010.8
20260903122540 58 267 7.8 14.8 0.00 0.00 0.00 91 1010.9
20260903122041 58 294 6.1 11.3 0.00 0.00 0.00 91 1010.8
20260903121550 57 265 5.2 12.2 0.00 0.00 0.00 91 1010.8
20260903121040 57 301 5.2 12.2 0.00 0.00 0.00 92 1010.9
20260903120540 57 288 7.0 11.3 0.00 0.00 0.00 92 1011.0
20260903120104 57 278 5.2 10.4 0.00 0.00 0.00 92 1011.0
20260903115540 57 263 6.1 10.4 0.00 0.00 0.00 92 1011.0
20260903115038 57 298 6.1 13.0 0.00 0.00 0.00 92 1011.1
20260903114600 57 277 7.0 15.6 0.00 0.00 0.00 92 1011.1
20260903114044 57 272 9.6 15.6 0.00 0.00 0.00 92 1011.3
20260903113542 57 298 8.7 14.8 0.00 0.00 0.00 92 1011.3
20260903113053 57 276 9.6 14.8 0.00 0.00 0.00 92 1011.4
20260903112540 57 302 7.8 13.9 0.00 0.00 0.00 92 1011.5
20260903112039 57 290 7.8 13.0 0.00 0.00 0.00 92 1011.4
20260903111558 56 308 4.3 7.0 0.00 0.00 0.00 92 1011.5
20260903111042 56 275 2.6 6.1 0.00 0.00 0.00 91 1011.6
20260903110539 56 250 1.7 6.1 0.00 0.00 0.00 91 1011.7
20260903110120 56 269 2.6 6.1 0.00 0.00 0.00 91 1011.8
20260903105539 56 294 0.9 6.1 0.00 0.00 0.00 91 1011.7
20260903105039 56 320 3.5 6.1 0.00 0.00 0.00 91 1012.0
20260903104556 56 277 1.7 5.2 0.00 0.00 0.00 91 1011.9
20260903104038 56 246 0.9 6.1 0.00 0.00 0.00 90 1012.0
20260903103542 56 277 0.9 6.1 0.00 0.00 0.00 90 1011.9
20260903103052 56 277 1.7 5.2 0.00 0.00 0.00 90 1012.0
20260903102539 56 273 0.9 5.2 0.00 0.00 0.00 90 1012.0
20260903102041 55 255 2.6 6.1 0.00 0.00 0.00 90 1012.1
20260903101608 55 273 1.7 6.1 0.00 0.00 0.00 90 1012.1
20260903101039 55 302 2.6 3.5 0.00 0.00 0.00 90 1012.1
20260903100539 55 336 1.7 3.5 0.00 0.00 0.00 90 1012.2
20260903100059 55 271 0.9 3.5 0.00 0.00 0.00 90 1012.2
20260903095538 55 255 0.9 3.5 0.00 0.00 0.00 90 1012.3
20260903095038 55 259 1.7 3.5 0.00 0.00 0.00 90 1012.4
20260903094600 55 329 1.7 3.5 0.00 0.00 0.00 90 1012.4
20260903094039 55 271 0.9 3.5 0.00 0.00 0.00 90 1012.5
20260903093539 55 269 2.6 3.5 0.00 0.00 0.00 90 1012.4
20260903093051 55 261 1.7 3.5 0.00 0.00 0.00 90 1012.4
20260903092539 54 265 0.9 2.6 0.00 0.00 0.00 90 1012.4
20260903092039 54 264 1.7 3.5 0.00 0.00 0.00 90 1012.4
20260903091600 54 261 0.9 3.5 0.00 0.00 0.00 90 1012.4
20260903091039 54 265 0.9 1.7 0.00 0.00 0.00 91 1012.4
20260903090539 54 266 0.9 1.7 0.00 0.00 0.00 91 1012.5
20260903090059 54 267 0.0 1.7 0.00 0.00 0.00 90 1012.5
20260903085538 54 267 0.0 2.6 0.00 0.00 0.00 90 1012.5
20260903085038 54 265 0.0 3.5 0.00 0.00 0.00 90 1012.6
20260903084555 54 265 1.7 3.5 0.00 0.00 0.00 90 1012.5
20260903084040 54 260 0.9 2.6 0.00 0.00 0.00 90 1012.5
20260903083539 55 270 0.9 2.6 0.00 0.00 0.00 90 1012.4
20260903083059 55 265 0.0 2.6 0.00 0.00 0.00 89 1012.6
20260903082538 56 0 0.0 2.6 0.00 0.00 0.00 89 1012.6
20260903082040 56 273 0.9 2.6 0.00 0.00 0.00 89 1012.5
20260903081550 56 270 0.0 6.1 0.00 0.00 0.00 89 1012.6
20260903081038 57 0 0.9 6.1 0.00 0.00 0.00 90 1012.8
20260903080539 57 281 3.5 7.8 0.00 0.00 0.00 90 1012.7
20260903080104 57 298 4.3 7.8 0.00 0.00 0.00 90 1012.7
20260903075538 57 259 2.6 6.1 0.00 0.00 0.00 90 1012.7
20260903075038 57 253 2.6 6.1 0.00 0.00 0.00 89 1012.6
20260903074608 57 230 0.9 7.0 0.00 0.00 0.00 89 1012.7
20260903074038 57 232 2.6 7.0 0.00 0.00 0.00 89 1012.7
20260903073538 57 250 2.6 7.8 0.00 0.00 0.00 89 1012.7
20260903073100 57 262 4.3 9.6 0.00 0.00 0.00 89 1012.8
20260903072540 57 268 4.3 9.6 0.00 0.00 0.00 89 1012.7
20260903072043 57 270 3.5 7.8 0.00 0.00 0.00 89 1012.7
20260903071553 57 286 2.6 7.0 0.00 0.00 0.00 89 1012.7
20260903071040 57 242 2.6 7.8 0.00 0.00 0.00 89 1012.8
20260903070538 57 261 4.3 7.8 0.00 0.00 0.00 89 1012.7
20260903065539 57 249 3.5 8.7 0.00 0.00 0.00 89 1012.8
20260903065035 57 254 3.5 8.7 0.00 0.00 0.00 89 1012.7
20260903064602 57 240 3.5 7.8 0.00 0.00 0.00 88 1012.7
20260903064038 57 262 3.5 9.6 0.00 0.00 0.00 88 1012.7
20260903063535 57 261 5.2 9.6 0.00 0.00 0.00 88 1012.8
20260903063054 57 239 4.3 8.7 0.00 0.00 0.00 88 1012.7
20260903062537 57 44 3.5 7.8 0.00 0.00 0.00 88 1012.7
20260903062037 57 312 4.3 7.8 0.00 0.00 0.00 88 1012.6
20260903061601 57 239 3.5 12.2 0.00 0.00 0.00 88 1012.5
20260903061038 57 274 4.3 12.2 0.00 0.00 0.00 88 1012.5
20260903060538 58 238 3.5 8.7 0.00 0.00 0.00 88 1012.6
20260903060058 58 267 3.5 9.6 0.00 0.00 0.00 88 1012.7
20260903055539 58 250 4.3 9.6 0.00 0.00 0.00 87 1012.7
20260903055038 58 244 4.3 9.6 0.00 0.00 0.00 87 1012.8
20260903054557 58 251 4.3 8.7 0.00 0.00 0.00 86 1012.7
20260903054035 58 255 3.5 11.3 0.00 0.00 0.00 86 1012.7
20260903053539 58 256 5.2 11.3 0.00 0.00 0.00 85 1012.7
20260903053107 58 261 4.3 10.4 0.00 0.00 0.00 85 1012.7
20260903052539 58 237 6.1 11.3 0.00 0.00 0.00 84 1012.7
20260903052042 58 254 5.2 11.3 0.00 0.00 0.00 84 1012.7
20260903051554 58 265 7.0 11.3 0.00 0.00 0.00 84 1012.7
20260903051038 58 259 7.0 11.3 0.00 0.00 0.00 83 1012.8
20260903050541 58 247 7.0 10.4 0.00 0.00 0.00 83 1012.7
20260903045539 59 257 6.1 13.0 0.00 0.00 0.00 83 1013.0
20260903045041 59 245 7.0 13.0 0.00 0.00 0.00 82 1013.0
20260903044603 59 252 7.0 12.2 0.00 0.00 0.00 82 1013.0
20260903044038 59 247 7.0 12.2 0.00 0.00 0.00 83 1013.0
20260903043539 58 253 7.8 12.2 0.00 0.00 0.00 82 1013.1
20260903043049 58 253 7.8 12.2 0.00 0.00 0.00 82 1013.1
20260903042539 58 252 8.7 13.9 0.00 0.00 0.00 81 1013.1
20260903042039 59 284 10.4 15.6 0.00 0.00 0.00 81 1013.0
20260903041548 59 249 10.4 15.6 0.00 0.00 0.00 79 1013.0
20260903041039 59 240 9.6 14.8 0.00 0.00 0.00 78 1013.1
20260903040539 60 261 10.4 14.8 0.00 0.00 0.00 76 1013.1
20260903040100 60 267 10.4 14.8 0.00 0.00 0.00 75 1013.1
20260903035538 60 244 8.7 16.5 0.00 0.00 0.00 76 1013.2
20260903035039 60 267 9.6 16.5 0.00 0.00 0.00 77 1013.2
20260903034553 60 262 10.4 15.6 0.00 0.00 0.00 76 1013.1
20260903034038 60 250 10.4 15.6 0.00 0.00 0.00 76 1013.1
20260903033543 60 251 10.4 16.5 0.00 0.00 0.00 76 1013.2
20260903033107 60 263 9.6 16.5 0.00 0.00 0.00 77 1013.3
20260903032539 60 237 9.6 16.5 0.00 0.00 0.00 77 1013.4
20260903032038 60 259 11.3 16.5 0.00 0.00 0.00 78 1013.3
20260903031558 60 249 9.6 16.5 0.00 0.00 0.00 78 1013.4
20260903031039 60 260 12.2 16.5 0.00 0.00 0.00 78 1013.4
20260903030539 60 238 11.3 15.6 0.00 0.00 0.00 78 1013.4
20260903030057 60 227 10.4 15.6 0.00 0.00 0.00 78 1013.4
20260903025538 60 259 11.3 19.1 0.00 0.00 0.00 78 1013.3
20260903025038 60 246 10.4 19.1 0.00 0.00 0.00 79 1013.6
20260903024550 60 256 10.4 15.6 0.00 0.00 0.00 80 1013.6
20260903024038 60 242 9.6 14.8 0.00 0.00 0.00 80 1013.5
20260903023540 60 234 10.4 14.8 0.00 0.00 0.00 81 1013.7
20260903023057 61 259 9.6 14.8 0.00 0.00 0.00 81 1013.7
20260903022539 61 242 9.6 14.8 0.00 0.00 0.00 81 1013.7
20260903022039 61 252 9.6 15.6 0.00 0.00 0.00 81 1013.7
20260903021607 60 248 11.3 16.5 0.00 0.00 0.00 80 1013.8
20260903021038 60 262 10.4 17.4 0.00 0.00 0.00 80 1013.8
20260903020539 60 256 11.3 18.2 0.00 0.00 0.00 81 1013.9
20260903020058 60 253 12.2 18.2 0.00 0.00 0.00 79 1013.8
20260903015537 60 299 11.3 18.2 0.00 0.00 0.00 79 1013.9
20260903015038 60 240 11.3 22.6 0.00 0.00 0.00 80 1014.0
20260903014551 60 252 12.2 22.6 0.00 0.00 0.00 80 1014.0
20260903014039 60 241 11.3 19.1 0.00 0.00 0.00 80 1014.1
20260903013539 60 261 10.4 19.1 0.00 0.00 0.00 79 1014.0
20260903013105 61 234 9.6 17.4 0.00 0.00 0.00 78 1014.2
20260903012539 61 257 10.4 17.4 0.00 0.00 0.00 79 1014.3
20260903012039 61 221 9.6 16.5 0.00 0.00 0.00 77 1014.4
20260903011606 60 250 8.7 19.1 0.00 0.00 0.00 78 1014.4